Tracking 31027 objects as of 19-Jul-2025
HD Live streaming from Space Station
objects crossing your sky now

KOREASAT 116

Track KOREASAT 116 now!


NORAD ID: 45920
Int'l Code: 2020-048A
Perigee: 35,788.7 km
Apogee: 35,800.4 km
Inclination: 0.0 °
Period: 1,436.1 minutes
Semi major axis: 42165 km
RCS: Unknown
Launch date: July 20, 2020
Source: United States (US)
Launch site: AIR FORCE EASTERN TEST RANGE (AFETR)
Your satellite tracking list
STARLINK-1749
Track 1 satellite(s)




NASA's NSSDC Master Catalog

Two Line Element Set (TLE):
1 45920U 20048A   25199.85151582 -.00000356  00000-0  00000+0 0  9999
2 45920   0.0211 307.6764 0001391 218.8568 193.1144  1.00268911 18292
Source of the keplerian elements: AFSPC